TimeCDT,TemperatureF,Dew PointF,Humidity,Sea Level PressureIn,VisibilityMPH,Wind Direction,Wind SpeedMPH,Gust SpeedMPH,PrecipitationIn,Events,Conditions,WindDirDegrees,DateUTC
12:58 AM,39.7,23.5,52,30.21,10.0,East,5.8,-,N/A,,Mostly Cloudy,90,2013-04-04 05:58:00
1:58 AM,38.8,23.2,53,30.21,10.0,East,3.5,-,N/A,,Scattered Clouds,80,2013-04-04 06:58:00
2:58 AM,37.4,23.2,57,30.18,10.0,NE,4.6,-,N/A,,Clear,50,2013-04-04 07:58:00
3:58 AM,36.5,23.2,59,30.17,10.0,NE,4.6,-,N/A,,Clear,50,2013-04-04 08:58:00
4:58 AM,34.0,25.2,70,30.18,10.0,North,2.3,-,N/A,,Overcast,10,2013-04-04 09:58:00
5:58 AM,35.4,24.4,64,30.16,10.0,NNE,4.6,-,N/A,,Overcast,20,2013-04-04 10:58:00
6:58 AM,35.8,25.2,65,30.18,10.0,NNE,3.5,-,N/A,,Overcast,30,2013-04-04 11:58:00
7:58 AM,38.1,25.9,61,30.19,10.0,NNE,4.6,-,N/A,,Overcast,30,2013-04-04 12:58:00
8:58 AM,40.5,26.1,57,30.17,10.0,NE,5.8,-,N/A,,Overcast,40,2013-04-04 13:58:00
9:58 AM,46.2,24.1,42,30.14,10.0,ENE,5.8,-,N/A,,Mostly Cloudy,60,2013-04-04 14:58:00
10:58 AM,48.7,20.5,33,30.13,10.0,NE,5.8,-,N/A,,Overcast,50,2013-04-04 15:58:00
11:58 AM,52.7,22.5,31,30.12,10.0,NNW,9.2,-,N/A,,Clear,340,2013-04-04 16:58:00
12:58 PM,55.0,22.1,28,30.11,10.0,Variable,4.6,-,N/A,,Scattered Clouds,0,2013-04-04 17:58:00
1:58 PM,55.4,20.8,26,30.09,10.0,NNE,11.5,-,N/A,,Clear,30,2013-04-04 18:58:00
2:58 PM,57.4,21.6,25,30.08,10.0,Variable,3.5,-,N/A,,Clear,0,2013-04-04 19:58:00
3:58 PM,59.0,24.1,26,30.06,10.0,NE,8.1,-,N/A,,Overcast,50,2013-04-04 20:58:00
4:58 PM,57.0,22.3,26,30.06,10.0,NW,6.9,-,N/A,,Mostly Cloudy,320,2013-04-04 21:58:00
5:58 PM,56.1,26.1,31,30.06,10.0,NNW,8.1,-,N/A,,Overcast,340,2013-04-04 22:58:00
6:58 PM,53.8,25.0,33,30.07,10.0,NW,8.1,-,N/A,,Partly Cloudy,320,2013-04-04 23:58:00
7:58 PM,50.9,24.1,35,30.07,10.0,NW,4.6,-,N/A,,Clear,310,2013-04-05 00:58:00
8:58 PM,49.1,22.3,35,30.09,10.0,NNW,1.2,-,N/A,,Clear,330,2013-04-05 01:58:00
9:58 PM,47.1,24.1,40,30.11,10.0,WNW,5.8,-,N/A,,Clear,300,2013-04-05 02:58:00
10:58 PM,45.9,25.9,46,30.11,10.0,West,2.3,-,N/A,,Clear,270,2013-04-05 03:58:00
11:58 PM,43.5,26.2,51,30.12,10.0,West,2.3,-,N/A,,Clear,260,2013-04-05 04:58:00